Location: Hilton Head Island
(32.2163°N, 80.7526°W)
Time: 04:11:56
(UTC-04:00)

Explorer 7 - Pass Details

Date: 20 February 2026
Orbit: 430 x 542 km, 50.2° (Epoch: 7 March)

Event Time Altitude Azimuth Distance (km) Brightness Sun altitude
Rises 13:35:28 0° 234° (SW) 2,383 10.6 44.8°
Reaches altitude 10° 13:37:34 10° 238° (WSW) 1,524 9.8 44.7°
Maximum altitude 13:40:57 59° 319° (NW) 508 7.1 44.4°
Drops below altitude 10° 13:44:25 10° 40° (NE) 1,566 8.8 44.1°
Sets 13:46:37 0° 44° (NE) 2,456 9.7 43.9°
